DW4725 Weather Reports


Display with metric or nautical units.
time (UTC)temp
F
wind
direction
speed
MPH
gust
MPH
rain 1hr
in
rain 24hr
in
rain mn
in
humidity
%
barometer
mb
20200705223649 64 259 2.0 5.0 0.00 0.00 0.00 76 1020.3
20200705223439 64 248 2.0 5.0 0.00 0.00 0.00 76 1020.4
20200705223237 64 258 1.0 5.0 0.00 0.00 0.00 76 1020.3
20200705223032 64 244 1.0 5.0 0.00 0.00 0.00 75 1020.4
20200705222832 64 254 1.0 5.0 0.00 0.00 0.00 74 1020.3
20200705222630 65 244 1.0 5.0 0.00 0.00 0.00 73 1020.4
20200705222429 65 252 1.0 5.0 0.00 0.00 0.00 73 1020.3
20200705222219 65 256 1.0 5.0 0.00 0.00 0.00 72 1020.3
20200705222020 65 259 1.0 5.0 0.00 0.00 0.00 72 1020.3
20200705221811 65 257 1.0 5.0 0.00 0.00 0.00 71 1020.3
20200705221610 66 245 1.0 5.0 0.00 0.00 0.00 70 1020.2
20200705221406 66 245 1.0 5.0 0.00 0.00 0.00 69 1020.3
20200705221201 66 253 1.0 5.0 0.00 0.00 0.00 69 1020.3
20200705221001 66 248 1.0 4.0 0.00 0.00 0.00 69 1020.4
20200705220803 66 250 1.0 4.0 0.00 0.00 0.00 68 1020.3
20200705220554 66 260 1.0 4.0 0.00 0.00 0.00 68 1020.2
20200705220345 66 251 1.0 4.0 0.00 0.00 0.00 68 1020.2
20200705220136 66 276 2.0 4.0 0.00 0.00 0.00 68 1020.4
20200705215933 66 249 2.0 4.0 0.00 0.00 0.00 67 1020.3
20200705215731 66 268 2.0 4.0 0.00 0.00 0.00 67 1020.2
20200705215522 66 248 1.0 4.0 0.00 0.00 0.00 68 1020.3
20200705215319 66 246 1.0 4.0 0.00 0.00 0.00 68 1020.2
20200705215111 65 259 1.0 4.0 0.00 0.00 0.00 68 1020.3
20200705214902 65 241 0.0 3.0 0.00 0.00 0.00 69 1020.2
20200705214701 65 247 0.0 3.0 0.00 0.00 0.00 69 1020.2
20200705214456 65 254 0.0 3.0 0.00 0.00 0.00 68 1020.2
20200705214250 65 261 0.0 1.0 0.00 0.00 0.00 68 1020.3
20200705214053 66 229 0.0 0.0 0.00 0.00 0.00 68 1020.2
20200705213851 66 245 0.0 0.0 0.00 0.00 0.00 69 1020.3
20200705213644 66 238 0.0 0.0 0.00 0.00 0.00 68 1020.3
20200705213438 66 231 0.0 1.0 0.00 0.00 0.00 69 1020.2
20200705213230 66 230 0.0 1.0 0.00 0.00 0.00 69 1020.3
20200705213029 66 221 0.0 1.0 0.00 0.00 0.00 69 1020.3
20200705212825 66 240 0.0 1.0 0.00 0.00 0.00 70 1020.3
20200705212615 66 230 0.0 1.0 0.00 0.00 0.00 70 1020.2
20200705212409 66 233 0.0 0.0 0.00 0.00 0.00 70 1020.2
20200705212206 66 233 0.0 1.0 0.00 0.00 0.00 70 1020.3
20200705211957 66 221 0.0 1.0 0.00 0.00 0.00 70 1020.2
20200705211750 66 224 0.0 1.0 0.00 0.00 0.00 70 1020.2
20200705211542 66 224 0.0 1.0 0.00 0.00 0.00 70 1020.2
20200705211339 66 251 0.0 1.0 0.00 0.00 0.00 70 1020.3
20200705211129 66 251 0.0 1.0 0.00 0.00 0.00 70 1020.3
20200705210928 66 247 0.0 0.0 0.00 0.00 0.00 70 1020.3
20200705210721 66 251 0.0 0.0 0.00 0.00 0.00 70 1020.4
20200705210512 66 251 0.0 0.0 0.00 0.00 0.00 69 1020.4
20200705210309 66 257 0.0 2.0 0.00 0.00 0.00 69 1020.3
20200705210113 67 255 0.0 2.0 0.00 0.00 0.00 70 1020.3
20200705205902 67 272 0.0 2.0 0.00 0.00 0.00 70 1020.3
20200705205701 67 265 0.0 2.0 0.00 0.00 0.00 70 1020.4
20200705205459 66 224 0.0 2.0 0.00 0.00 0.00 70 1020.3
20200705205254 66 243 0.0 1.0 0.00 0.00 0.00 70 1020.3
20200705205051 66 221 0.0 1.0 0.00 0.00 0.00 70 1020.5
20200705204843 66 233 0.0 1.0 0.00 0.00 0.00 71 1020.3
20200705204642 67 230 0.0 1.0 0.00 0.00 0.00 71 1020.2
20200705204433 67 235 0.0 0.0 0.00 0.00 0.00 71 1020.3
20200705204234 67 235 0.0 2.0 0.00 0.00 0.00 71 1020.3
20200705204026 67 263 0.0 2.0 0.00 0.00 0.00 71 1020.4
20200705203819 67 228 0.0 2.0 0.00 0.00 0.00 71 1020.3
20200705203615 67 268 1.0 2.0 0.00 0.00 0.00 71 1020.2
20200705203408 67 207 1.0 3.0 0.00 0.00 0.00 71 1020.2
20200705203158 67 228 1.0 3.0 0.00 0.00 0.00 71 1020.1
20200705202948 67 264 1.0 3.0 0.00 0.00 0.00 71 1020.1
20200705202738 67 246 1.0 3.0 0.00 0.00 0.00 70 1020.2
20200705202536 67 250 1.0 3.0 0.00 0.00 0.00 70 1020.2
20200705202326 67 232 1.0 3.0 0.00 0.00 0.00 70 1020.2
20200705202126 67 251 1.0 3.0 0.00 0.00 0.00 70 1020.1
20200705201925 67 265 1.0 3.0 0.00 0.00 0.00 70 1020.1
20200705201720 67 232 1.0 3.0 0.00 0.00 0.00 70 1020.1
20200705201518 68 241 1.0 3.0 0.00 0.00 0.00 70 1020.1
20200705201308 68 240 1.0 3.0 0.00 0.00 0.00 70 1020.0
20200705201104 68 241 1.0 3.0 0.00 0.00 0.00 70 1020.0
20200705200859 68 247 1.0 3.0 0.00 0.00 0.00 70 1020.0
20200705200701 68 250 1.0 3.0 0.00 0.00 0.00 69 1020.0
20200705200459 68 254 1.0 3.0 0.00 0.00 0.00 70 1020.1
20200705200251 68 259 1.0 3.0 0.00 0.00 0.00 70 1020.0
20200705200040 68 252 1.0 3.0 0.00 0.00 0.00 70 1020.1
20200705195834 68 257 1.0 3.0 0.00 0.00 0.00 69 1020.1
20200705195628 68 244 1.0 3.0 0.00 0.00 0.00 69 1020.1
20200705195425 68 248 1.0 3.0 0.00 0.00 0.00 69 1020.1
20200705195217 68 257 1.0 2.0 0.00 0.00 0.00 69 1020.0
20200705195018 68 257 1.0 2.0 0.00 0.00 0.00 70 1020.0
20200705194816 68 249 1.0 4.0 0.00 0.00 0.00 70 1020.0
20200705194610 68 246 1.0 4.0 0.00 0.00 0.00 69 1020.0
20200705194407 68 248 1.0 4.0 0.00 0.00 0.00 69 1019.9
20200705194207 68 248 1.0 4.0 0.00 0.00 0.00 69 1019.9
20200705194005 68 262 1.0 4.0 0.00 0.00 0.00 69 1019.9
20200705193757 69 248 1.0 4.0 0.00 0.00 0.00 69 1020.0
20200705193553 69 250 1.0 4.0 0.00 0.00 0.00 69 1019.9
20200705193347 69 257 1.0 4.0 0.00 0.00 0.00 69 1020.0
20200705193141 69 232 1.0 4.0 0.00 0.00 0.00 69 1019.9
20200705192936 69 258 1.0 2.0 0.00 0.00 0.00 69 1020.0
20200705192728 69 252 1.0 2.0 0.00 0.00 0.00 69 1019.9
20200705192527 69 254 1.0 2.0 0.00 0.00 0.00 69 1019.8
20200705192321 69 295 1.0 1.0 0.00 0.00 0.00 69 1019.9
20200705192120 69 260 1.0 1.0 0.00 0.00 0.00 69 1019.8
20200705191921 70 258 1.0 1.0 0.00 0.00 0.00 68 1019.9
20200705191714 70 258 0.0 1.0 0.00 0.00 0.00 68 1019.9
20200705191516 70 256 0.0 1.0 0.00 0.00 0.00 68 1019.9
20200705191308 70 271 0.0 1.0 0.00 0.00 0.00 67 1020.0
20200705191058 71 256 0.0 1.0 0.00 0.00 0.00 66 1019.9
20200705190857 71 250 0.0 4.0 0.00 0.00 0.00 66 1019.9
20200705190658 71 271 0.0 4.0 0.00 0.00 0.00 65 1019.9
20200705190458 71 284 0.0 4.0 0.00 0.00 0.00 65 1020.1
20200705190257 71 320 0.0 4.0 0.00 0.00 0.00 65 1020.1
20200705190053 72 283 1.0 4.0 0.00 0.00 0.00 65 1020.0
20200705185849 72 303 1.0 5.0 0.00 0.00 0.00 64 1020.1
20200705185650 72 300 1.0 5.0 0.00 0.00 0.00 64 1020.1
20200705185447 72 287 2.0 5.0 0.00 0.00 0.00 63 1020.0
20200705185244 72 312 2.0 5.0 0.00 0.00 0.00 63 1020.1
20200705185040 72 302 2.0 5.0 0.00 0.00 0.00 62 1020.2
20200705184830 72 293 2.0 5.0 0.00 0.00 0.00 62 1020.0
20200705184621 73 293 1.0 5.0 0.00 0.00 0.00 62 1020.1
20200705184420 73 290 1.0 5.0 0.00 0.00 0.00 62 1020.0
20200705184217 73 308 1.0 5.0 0.00 0.00 0.00 62 1020.1
20200705184016 73 270 1.0 5.0 0.00 0.00 0.00 61 1020.1
20200705183807 73 286 1.0 4.0 0.00 0.00 0.00 64 1020.1
20200705183604 74 253 1.0 4.0 0.00 0.00 0.00 64 1020.0
20200705183355 74 293 1.0 4.0 0.00 0.00 0.00 64 1020.1
20200705183156 74 261 1.0 4.0 0.00 0.00 0.00 63 1020.1
20200705182950 74 280 1.0 4.0 0.00 0.00 0.00 63 1020.1
20200705182740 74 269 1.0 5.0 0.00 0.00 0.00 63 1020.0
20200705182534 74 269 1.0 5.0 0.00 0.00 0.00 65 1020.1
20200705182331 74 301 1.0 5.0 0.00 0.00 0.00 64 1020.1
20200705182124 74 290 2.0 5.0 0.00 0.00 0.00 65 1020.0
20200705181918 74 278 2.0 5.0 0.00 0.00 0.00 63 1020.1
20200705181713 74 300 2.0 5.0 0.00 0.00 0.00 63 1020.1
20200705181509 74 316 2.0 5.0 0.00 0.00 0.00 63 1020.1
20200705181302 74 307 1.0 5.0 0.00 0.00 0.00 63 1020.1
20200705181055 75 308 1.0 5.0 0.00 0.00 0.00 63 1020.1
20200705180854 75 285 1.0 4.0 0.00 0.00 0.00 63 1020.2
20200705180652 75 306 1.0 4.0 0.00 0.00 0.00 64 1020.1
20200705180444 75 296 1.0 4.0 0.00 0.00 0.00 65 1020.1
20200705180238 75 295 1.0 4.0 0.00 0.00 0.00 65 1020.1
20200705180041 75 293 1.0 5.0 0.00 0.00 0.00 65 1020.1
20200705175835 75 314 1.0 5.0 0.00 0.00 0.00 64 1020.1
20200705175624 75 234 1.0 5.0 0.00 0.00 0.00 64 1020.1
20200705175418 75 285 1.0 5.0 0.00 0.00 0.00 65 1020.1
20200705175208 75 307 1.0 5.0 0.00 0.00 0.00 64 1020.1
20200705175009 75 310 2.0 5.0 0.00 0.00 0.00 64 1020.1
20200705174800 75 294 1.0 5.0 0.00 0.00 0.00 65 1020.1
20200705174557 75 283 1.0 5.0 0.00 0.00 0.00 63 1020.2
20200705174354 75 295 1.0 5.0 0.00 0.00 0.00 64 1020.2
20200705174155 76 307 1.0 5.0 0.00 0.00 0.00 63 1020.2
20200705173943 76 292 1.0 4.0 0.00 0.00 0.00 66 1020.1
20200705173737 76 300 1.0 4.0 0.00 0.00 0.00 64 1020.2
20200705173534 76 302 1.0 4.0 0.00 0.00 0.00 65 1020.2
20200705173325 75 304 1.0 9.0 0.00 0.00 0.00 64 1020.2
20200705173125 75 297 1.0 9.0 0.00 0.00 0.00 63 1020.2
20200705172916 75 262 1.0 9.0 0.00 0.00 0.00 64 1020.2
20200705172709 75 299 2.0 9.0 0.00 0.00 0.00 66 1020.2
20200705172507 75 307 3.0 9.0 0.00 0.00 0.00 65 1020.2
20200705172307 75 298 3.0 9.0 0.00 0.00 0.00 65 1020.2
20200705172108 75 295 3.0 9.0 0.00 0.00 0.00 64 1020.2
20200705171900 75 309 3.0 9.0 0.00 0.00 0.00 64 1020.2
20200705171653 75 323 3.0 9.0 0.00 0.00 0.00 63 1020.2
20200705171450 75 290 3.0 9.0 0.00 0.00 0.00 63 1020.2
20200705171251 75 289 3.0 7.0 0.00 0.00 0.00 64 1020.2
20200705171041 76 304 3.0 7.0 0.00 0.00 0.00 64 1020.1
20200705170835 76 315 2.0 7.0 0.00 0.00 0.00 63 1020.1
20200705170637 76 308 2.0 5.0 0.00 0.00 0.00 62 1020.1
20200705170435 76 293 2.0 5.0 0.00 0.00 0.00 62 1020.2
20200705170233 76 304 1.0 9.0 0.00 0.00 0.00 63 1020.2
20200705170023 76 287 1.0 9.0 0.00 0.00 0.00 62 1020.2
20200705165822 76 276 2.0 9.0 0.00 0.00 0.00 66 1020.2
20200705165613 76 293 2.0 9.0 0.00 0.00 0.00 63 1020.2
20200705165410 76 289 2.0 9.0 0.00 0.00 0.00 65 1020.2
20200705165203 76 291 2.0 9.0 0.00 0.00 0.00 63 1020.2
20200705164957 76 295 3.0 9.0 0.00 0.00 0.00 64 1020.1
20200705164751 76 288 3.0 9.0 0.00 0.00 0.00 63 1020.2
20200705164549 76 291 3.0 9.0 0.00 0.00 0.00 62 1020.2
20200705164338 76 288 3.0 9.0 0.00 0.00 0.00 64 1020.2
20200705164149 76 324 2.0 6.0 0.00 0.00 0.00 62 1020.1
20200705163928 76 315 2.0 6.0 0.00 0.00 0.00 63 1020.2
20200705163724 76 311 2.0 6.0 0.00 0.00 0.00 63 1020.2
20200705163516 76 310 1.0 4.0 0.00 0.00 0.00 63 1020.1
20200705163316 76 302 1.0 4.0 0.00 0.00 0.00 62 1020.2
20200705163115 76 264 1.0 4.0 0.00 0.00 0.00 63 1020.1
20200705162912 76 243 1.0 6.0 0.00 0.00 0.00 64 1020.1
20200705162703 75 305 2.0 6.0 0.00 0.00 0.00 63 1020.3
20200705162500 75 261 2.0 6.0 0.00 0.00 0.00 64 1020.2
20200705162259 75 284 2.0 6.0 0.00 0.00 0.00 64 1020.2
20200705162051 76 251 2.0 9.0 0.00 0.00 0.00 61 1020.2
20200705161848 76 270 2.0 9.0 0.00 0.00 0.00 63 1020.1
20200705161641 77 299 2.0 9.0 0.00 0.00 0.00 62 1020.2
20200705161441 77 283 1.0 9.0 0.00 0.00 0.00 62 1020.2
20200705161233 77 278 1.0 9.0 0.00 0.00 0.00 62 1020.2
20200705161024 76 293 2.0 9.0 0.00 0.00 0.00 65 1020.3
20200705160817 76 302 2.0 9.0 0.00 0.00 0.00 62 1020.3
20200705160617 76 269 3.0 9.0 0.00 0.00 0.00 63 1020.3
20200705160412 76 294 4.0 9.0 0.00 0.00 0.00 61 1020.3
20200705160210 76 313 3.0 9.0 0.00 0.00 0.00 59 1020.4
20200705160010 76 265 3.0 8.0 0.00 0.00 0.00 60 1020.3
20200705155802 76 316 2.0 8.0 0.00 0.00 0.00 61 1020.2
20200705155553 76 245 2.0 7.0 0.00 0.00 0.00 61 1020.2
20200705155349 76 262 2.0 7.0 0.00 0.00 0.00 61 1020.3
20200705155145 77 314 2.0 7.0 0.00 0.00 0.00 61 1020.3
20200705154937 76 273 2.0 7.0 0.00 0.00 0.00 61 1020.3
20200705154731 76 293 2.0 7.0 0.00 0.00 0.00 63 1020.3
20200705154522 76 266 3.0 7.0 0.00 0.00 0.00 61 1020.2
20200705154314 76 284 3.0 7.0 0.00 0.00 0.00 65 1020.3
20200705154115 76 252 3.0 8.0 0.00 0.00 0.00 61 1020.3
20200705153914 76 337 3.0 8.0 0.00 0.00 0.00 61 1020.4
20200705153714 76 295 3.0 8.0 0.00 0.00 0.00 61 1020.4
20200705153506 76 278 2.0 8.0 0.00 0.00 0.00 62 1020.4
20200705153302 76 285 3.0 8.0 0.00 0.00 0.00 61 1020.4
20200705153109 76 307 3.0 8.0 0.00 0.00 0.00 64 1020.4
20200705152858 76 311 2.0 8.0 0.00 0.00 0.00 62 1020.4
20200705152650 76 266 2.0 8.0 0.00 0.00 0.00 63 1020.5
20200705152443 76 303 2.0 8.0 0.00 0.00 0.00 63 1020.4
20200705152239 76 302 3.0 8.0 0.00 0.00 0.00 64 1020.4
20200705152029 76 294 3.0 7.0 0.00 0.00 0.00 64 1020.5
20200705151833 76 300 3.0 7.0 0.00 0.00 0.00 62 1020.5
20200705151624 76 276 3.0 7.0 0.00 0.00 0.00 61 1020.5
20200705151419 76 304 3.0 7.0 0.00 0.00 0.00 63 1020.5
20200705151220 76 295 2.0 7.0 0.00 0.00 0.00 61 1020.5
20200705151016 76 297 2.0 5.0 0.00 0.00 0.00 60 1020.5
20200705150804 76 301 2.0 5.0 0.00 0.00 0.00 63 1020.6
20200705150601 76 244 2.0 4.0 0.00 0.00 0.00 64 1020.5
20200705150400 76 258 2.0 7.0 0.00 0.00 0.00 63 1020.6
20200705150152 76 303 2.0 7.0 0.00 0.00 0.00 63 1020.6
20200705150023 76 229 3.0 7.0 0.00 0.00 0.00 67 1020.6
20200705145747 75 256 3.0 7.0 0.00 0.00 0.00 63 1020.6
20200705145546 76 297 3.0 7.0 0.00 0.00 0.00 63 1020.6
20200705145338 76 277 3.0 7.0 0.00 0.00 0.00 62 1020.6
20200705145128 75 282 3.0 7.0 0.00 0.00 0.00 66 1020.5
20200705144920 75 290 3.0 7.0 0.00 0.00 0.00 64 1020.5
20200705144715 76 292 2.0 7.0 0.00 0.00 0.00 64 1020.5
20200705144516 76 302 2.0 6.0 0.00 0.00 0.00 64 1020.5
20200705144309 76 303 2.0 6.0 0.00 0.00 0.00 65 1020.6
20200705144102 75 267 2.0 6.0 0.00 0.00 0.00 67 1020.6
20200705143903 75 317 2.0 8.0 0.00 0.00 0.00 63 1020.6
20200705143658 75 333 3.0 8.0 0.00 0.00 0.00 63 1020.6
20200705143455 75 285 3.0 8.0 0.00 0.00 0.00 66 1020.6
20200705143246 75 292 3.0 8.0 0.00 0.00 0.00 63 1020.6
20200705143047 75 253 3.0 8.0 0.00 0.00 0.00 63 1020.6
20200705142841 75 288 3.0 9.0 0.00 0.00 0.00 62 1020.6
20200705142641 75 308 3.0 9.0 0.00 0.00 0.00 64 1020.6
20200705142441 75 307 3.0 9.0 0.00 0.00 0.00 66 1020.6
20200705142235 75 307 3.0 9.0 0.00 0.00 0.00 64 1020.6
20200705142029 75 285 3.0 9.0 0.00 0.00 0.00 63 1020.6
20200705141827 75 287 3.0 9.0 0.00 0.00 0.00 65 1020.7
20200705141628 75 298 3.0 9.0 0.00 0.00 0.00 63 1020.6
20200705141419 75 293 3.0 9.0 0.00 0.00 0.00 65 1020.7
20200705141219 75 316 3.0 9.0 0.00 0.00 0.00 64 1020.7
20200705141020 75 295 3.0 8.0 0.00 0.00 0.00 63 1020.6
20200705140811 75 301 2.0 7.0 0.00 0.00 0.00 63 1020.6
20200705140605 76 299 2.0 6.0 0.00 0.00 0.00 64 1020.7
20200705140400 76 300 2.0 6.0 0.00 0.00 0.00 64 1020.6
20200705140152 76 306 2.0 6.0 0.00 0.00 0.00 65 1020.8
20200705135948 76 304 2.0 6.0 0.00 0.00 0.00 68 1020.7
20200705135745 75 326 2.0 6.0 0.00 0.00 0.00 64 1020.7
20200705135542 75 280 2.0 6.0 0.00 0.00 0.00 62 1020.7
20200705135337 75 288 2.0 6.0 0.00 0.00 0.00 64 1020.7
20200705135129 75 275 2.0 7.0 0.00 0.00 0.00 64 1020.7
20200705134925 75 257 2.0 7.0 0.00 0.00 0.00 65 1020.7
20200705134719 75 305 2.0 7.0 0.00 0.00 0.00 65 1020.8
20200705134515 75 307 1.0 7.0 0.00 0.00 0.00 66 1020.8
20200705134307 76 317 2.0 7.0 0.00 0.00 0.00 62 1020.7
20200705134102 76 308 2.0 7.0 0.00 0.00 0.00 62 1020.8
20200705133857 75 209 2.0 7.0 0.00 0.00 0.00 66 1020.8
20200705133650 75 245 2.0 7.0 0.00 0.00 0.00 65 1020.8
20200705133451 75 252 2.0 7.0 0.00 0.00 0.00 66 1020.8
20200705133242 75 271 2.0 5.0 0.00 0.00 0.00 69 1020.8
20200705133042 75 309 2.0 5.0 0.00 0.00 0.00 64 1020.9
20200705132838 75 328 2.0 6.0 0.00 0.00 0.00 65 1020.9
20200705132635 75 298 2.0 6.0 0.00 0.00 0.00 65 1020.8
20200705132425 74 293 1.0 6.0 0.00 0.00 0.00 65 1020.9
20200705132226 74 264 2.0 6.0 0.00 0.00 0.00 64 1021.0
20200705132021 74 272 2.0 6.0 0.00 0.00 0.00 68 1020.9
20200705131807 74 304 2.0 6.0 0.00 0.00 0.00 64 1021.0
20200705131603 74 302 2.0 6.0 0.00 0.00 0.00 64 1020.9
20200705131359 74 285 2.0 6.0 0.00 0.00 0.00 65 1021.0
20200705131149 74 254 2.0 6.0 0.00 0.00 0.00 67 1021.0
20200705130942 74 299 2.0 6.0 0.00 0.00 0.00 65 1021.0
20200705130738 74 277 2.0 6.0 0.00 0.00 0.00 68 1021.0
20200705130532 74 302 2.0 6.0 0.00 0.00 0.00 65 1020.9
20200705130329 74 280 2.0 6.0 0.00 0.00 0.00 65 1021.0
20200705130123 73 313 2.0 6.0 0.00 0.00 0.00 67 1021.1
20200705125917 73 295 2.0 6.0 0.00 0.00 0.00 65 1021.0
20200705125709 74 304 2.0 6.0 0.00 0.00 0.00 65 1021.1
20200705125507 74 308 2.0 6.0 0.00 0.00 0.00 66 1021.1
20200705125309 73 233 2.0 6.0 0.00 0.00 0.00 64 1021.0
20200705125055 74 268 2.0 6.0 0.00 0.00 0.00 65 1021.3
20200705124852 74 30 2.0 6.0 0.00 0.00 0.00 64 1021.2
20200705124651 74 291 2.0 6.0 0.00 0.00 0.00 64 1021.2
20200705124441 74 287 2.0 6.0 0.00 0.00 0.00 66 1021.2
20200705124240 74 275 3.0 6.0 0.00 0.00 0.00 65 1021.2
20200705124038 73 308 3.0 6.0 0.00 0.00 0.00 64 1021.2
20200705123838 74 303 3.0 6.0 0.00 0.00 0.00 65 1021.3
20200705123639 73 300 2.0 6.0 0.00 0.00 0.00 66 1021.3
20200705123430 73 312 2.0 6.0 0.00 0.00 0.00 67 1021.2
20200705123231 73 300 2.0 6.0 0.00 0.00 0.00 63 1021.2
20200705123025 73 283 2.0 12.0 0.00 0.00 0.00 68 1021.2
20200705122814 73 232 2.0 12.0 0.00 0.00 0.00 67 1021.2
20200705122612 74 304 2.0 12.0 0.00 0.00 0.00 63 1021.3
20200705122409 73 304 3.0 12.0 0.00 0.00 0.00 64 1021.2
20200705122204 73 283 4.0 12.0 0.00 0.00 0.00 67 1021.3
20200705122003 73 293 4.0 12.0 0.00 0.00 0.00 65 1021.4
20200705121754 73 311 4.0 12.0 0.00 0.00 0.00 63 1021.3
20200705121555 73 301 4.0 12.0 0.00 0.00 0.00 64 1021.3
20200705121353 73 315 3.0 12.0 0.00 0.00 0.00 63 1021.5
20200705121152 73 285 2.0 12.0 0.00 0.00 0.00 62 1021.4
20200705120947 74 338 2.0 7.0 0.00 0.00 0.00 62 1021.5
20200705120748 74 306 2.0 7.0 0.00 0.00 0.00 64 1021.4
20200705120539 74 249 2.0 7.0 0.00 0.00 0.00 64 1021.3
20200705120332 73 260 2.0 7.0 0.00 0.00 0.00 64 1021.4
20200705120122 73 275 2.0 7.0 0.00 0.00 0.00 63 1021.4
20200705115912 73 295 2.0 7.0 0.00 0.00 0.00 63 1021.3
20200705115702 73 255 2.0 7.0 0.00 0.00 0.00 64 1021.3
20200705115507 73 281 2.0 7.0 0.00 0.00 0.00 62 1021.3
20200705115256 73 323 2.0 6.0 0.00 0.00 0.00 62 1021.3
20200705115057 73 297 2.0 6.0 0.00 0.00 0.00 61 1021.3
20200705114854 73 305 2.0 6.0 0.00 0.00 0.00 62 1021.3
20200705114646 73 295 2.0 6.0 0.00 0.00 0.00 61 1021.4
20200705114438 73 268 2.0 6.0 0.00 0.00 0.00 62 1021.3
20200705114238 73 250 2.0 6.0 0.00 0.00 0.00 66 1021.4
20200705114034 73 274 2.0 6.0 0.00 0.00 0.00 60 1021.4
20200705113825 74 278 2.0 5.0 0.00 0.00 0.00 62 1021.4
20200705113619 73 6 2.0 5.0 0.00 0.00 0.00 63 1021.5
20200705113417 73 241 2.0 9.0 0.00 0.00 0.00 63 1021.6
20200705113210 73 195 2.0 9.0 0.00 0.00 0.00 61 1021.7
20200705113000 73 234 2.0 9.0 0.00 0.00 0.00 62 1021.7
20200705112750 73 227 2.0 9.0 0.00 0.00 0.00 60 1021.7
20200705112540 73 240 2.0 9.0 0.00 0.00 0.00 60 1021.7
20200705112330 73 247 2.0 9.0 0.00 0.00 0.00 65 1021.7
20200705112125 72 316 2.0 9.0 0.00 0.00 0.00 63 1021.7
20200705111926 72 258 2.0 9.0 0.00 0.00 0.00 63 1021.6
20200705111721 72 299 2.0 9.0 0.00 0.00 0.00 62 1021.6
20200705111514 72 285 2.0 5.0 0.00 0.00 0.00 64 1021.6
20200705111306 72 324 2.0 5.0 0.00 0.00 0.00 62 1021.7
20200705111104 73 226 2.0 5.0 0.00 0.00 0.00 60 1021.7
20200705110903 73 271 2.0 5.0 0.00 0.00 0.00 62 1021.7
20200705110702 72 265 1.0 6.0 0.00 0.00 0.00 67 1021.7
20200705110458 72 316 2.0 6.0 0.00 0.00 0.00 63 1021.7
20200705110250 72 307 2.0 6.0 0.00 0.00 0.00 64 1021.7
20200705110040 72 295 2.0 6.0 0.00 0.00 0.00 63 1021.7
20200705105840 72 226 2.0 6.0 0.00 0.00 0.00 61 1021.7
20200705105640 72 267 3.0 6.0 0.00 0.00 0.00 62 1021.7
20200705105433 72 255 2.0 6.0 0.00 0.00 0.00 63 1021.7
20200705105233 72 264 2.0 6.0 0.00 0.00 0.00 61 1021.7
20200705105025 72 227 2.0 6.0 0.00 0.00 0.00 64 1021.8
20200705104823 72 233 2.0 6.0 0.00 0.00 0.00 63 1021.8
20200705104614 72 262 2.0 6.0 0.00 0.00 0.00 65 1021.8
20200705104412 71 280 2.0 6.0 0.00 0.00 0.00 64 1021.8
20200705104205 71 229 2.0 6.0 0.00 0.00 0.00 65 1021.8
20200705104004 71 274 2.0 6.0 0.00 0.00 0.00 64 1021.8
20200705103802 71 252 2.0 6.0 0.00 0.00 0.00 62 1021.8
20200705103558 72 253 1.0 6.0 0.00 0.00 0.00 64 1021.8
20200705103351 72 304 1.0 6.0 0.00 0.00 0.00 65 1021.8
20200705103143 72 255 1.0 6.0 0.00 0.00 0.00 68 1021.8
20200705102933 72 278 2.0 6.0 0.00 0.00 0.00 68 1021.8
20200705102732 71 271 2.0 7.0 0.00 0.00 0.00 63 1021.7
20200705102530 71 236 2.0 7.0 0.00 0.00 0.00 64 1021.8
20200705102328 71 308 2.0 7.0 0.00 0.00 0.00 68 1021.7
20200705102124 71 256 2.0 7.0 0.00 0.00 0.00 69 1021.8
20200705101919 71 219 2.0 7.0 0.00 0.00 0.00 68 1021.8
20200705101712 70 315 2.0 7.0 0.00 0.00 0.00 63 1021.7
20200705101511 70 291 2.0 7.0 0.00 0.00 0.00 63 1021.9
20200705101306 70 274 2.0 7.0 0.00 0.00 0.00 66 1021.7
20200705101057 70 234 3.0 7.0 0.00 0.00 0.00 63 1021.7
20200705100850 70 243 2.0 6.0 0.00 0.00 0.00 64 1021.7
20200705100648 70 292 2.0 6.0 0.00 0.00 0.00 63 1021.7
20200705100440 70 247 2.0 6.0 0.00 0.00 0.00 61 1021.7
20200705100234 71 247 2.0 5.0 0.00 0.00 0.00 64 1021.8
20200705100024 71 247 2.0 4.0 0.00 0.00 0.00 65 1021.8
20200705095820 70 243 2.0 4.0 0.00 0.00 0.00 66 1021.8
20200705095610 70 252 2.0 4.0 0.00 0.00 0.00 67 1021.9
20200705095400 70 231 2.0 4.0 0.00 0.00 0.00 63 1021.8
20200705095153 70 278 2.0 9.0 0.00 0.00 0.00 69 1021.8
20200705094946 70 236 2.0 9.0 0.00 0.00 0.00 67 1021.8
20200705094747 70 267 2.0 9.0 0.00 0.00 0.00 67 1021.8
20200705094541 70 253 3.0 9.0 0.00 0.00 0.00 65 1021.8
20200705094334 69 236 4.0 9.0 0.00 0.00 0.00 63 1021.9
20200705094130 69 253 4.0 9.0 0.00 0.00 0.00 64 1021.9
20200705093921 69 245 3.0 9.0 0.00 0.00 0.00 63 1021.9
20200705093711 69 293 3.0 9.0 0.00 0.00 0.00 62 1021.8
20200705093504 70 259 2.0 9.0 0.00 0.00 0.00 62 1021.8
20200705093302 70 267 2.0 8.0 0.00 0.00 0.00 67 1021.9
20200705093058 70 265 2.0 7.0 0.00 0.00 0.00 67 1022.0
20200705092851 69 257 2.0 7.0 0.00 0.00 0.00 65 1021.9
20200705092642 69 259 2.0 7.0 0.00 0.00 0.00 66 1021.9
20200705092432 69 262 2.0 7.0 0.00 0.00 0.00 67 1022.0
20200705092231 69 251 2.0 7.0 0.00 0.00 0.00 65 1022.0
20200705092027 69 264 2.0 7.0 0.00 0.00 0.00 69 1022.1
20200705091817 69 219 3.0 9.0 0.00 0.00 0.00 67 1022.0
20200705091618 69 251 2.0 9.0 0.00 0.00 0.00 66 1021.9
20200705091407 69 253 2.0 9.0 0.00 0.00 0.00 65 1022.0
20200705091158 69 232 2.0 9.0 0.00 0.00 0.00 66 1022.0
20200705090954 69 248 2.0 9.0 0.00 0.00 0.00 66 1022.1
20200705090745 69 310 2.0 9.0 0.00 0.00 0.00 66 1022.1
20200705090543 69 242 3.0 9.0 0.00 0.00 0.00 68 1022.0
20200705090334 69 249 3.0 9.0 0.00 0.00 0.00 68 1022.1
20200705090135 69 240 2.0 9.0 0.00 0.00 0.00 68 1022.0
20200705085935 69 236 3.0 9.0 0.00 0.00 0.00 68 1022.0
20200705085734 69 269 3.0 8.0 0.00 0.00 0.00 67 1022.0
20200705085531 68 264 3.0 8.0 0.00 0.00 0.00 68 1022.0
20200705085322 68 236 2.0 8.0 0.00 0.00 0.00 68 1022.0
20200705085121 68 240 3.0 8.0 0.00 0.00 0.00 67 1021.9
20200705084922 68 220 2.0 8.0 0.00 0.00 0.00 69 1022.1
20200705084718 68 247 2.0 8.0 0.00 0.00 0.00 69 1022.1
20200705084512 68 227 2.0 8.0 0.00 0.00 0.00 69 1022.1
20200705084313 68 243 2.0 8.0 0.00 0.00 0.00 67 1022.2
20200705084110 68 130 2.0 9.0 0.00 0.00 0.00 69 1022.1
20200705083901 68 278 2.0 9.0 0.00 0.00 0.00 67 1022.2
20200705083701 68 219 2.0 9.0 0.00 0.00 0.00 67 1022.2
20200705083458 68 255 2.0 9.0 0.00 0.00 0.00 67 1022.3
20200705083247 68 255 2.0 9.0 0.00 0.00 0.00 68 1022.2
20200705083047 68 262 2.0 9.0 0.00 0.00 0.00 69 1022.2
20200705082838 67 226 2.0 9.0 0.00 0.00 0.00 69 1022.2
20200705082629 67 240 1.0 9.0 0.00 0.00 0.00 68 1022.2
20200705082423 67 219 1.0 9.0 0.00 0.00 0.00 69 1022.2
20200705082218 67 270 2.0 9.0 0.00 0.00 0.00 67 1022.3
20200705082012 67 264 1.0 5.0 0.00 0.00 0.00 68 1022.3
20200705081812 67 283 2.0 9.0 0.00 0.00 0.00 69 1022.3
20200705081612 67 274 2.0 9.0 0.00 0.00 0.00 69 1022.4
20200705081406 67 281 2.0 9.0 0.00 0.00 0.00 70 1022.3
20200705081200 67 208 2.0 9.0 0.00 0.00 0.00 68 1022.3
20200705081006 66 266 2.0 9.0 0.00 0.00 0.00 71 1022.3
20200705080753 66 237 2.0 9.0 0.00 0.00 0.00 70 1022.3
20200705080549 66 301 3.0 9.0 0.00 0.00 0.00 70 1022.3
20200705080346 66 295 3.0 9.0 0.00 0.00 0.00 69 1022.4
20200705080142 66 236 3.0 9.0 0.00 0.00 0.00 69 1022.4
20200705075934 66 233 3.0 9.0 0.00 0.00 0.00 69 1022.4
20200705075726 66 236 3.0 8.0 0.00 0.00 0.00 73 1022.3
20200705075525 66 253 3.0 10.0 0.00 0.00 0.00 71 1022.3
20200705075315 66 247 3.0 10.0 0.00 0.00 0.00 72 1022.4
20200705075110 65 281 3.0 10.0 0.00 0.00 0.00 72 1022.5
20200705074900 65 229 3.0 10.0 0.00 0.00 0.00 72 1022.4
20200705074654 65 237 4.0 10.0 0.00 0.00 0.00 71 1022.4
20200705074456 65 222 4.0 10.0 0.00 0.00 0.00 72 1022.4
20200705074244 65 232 4.0 10.0 0.00 0.00 0.00 71 1022.5
20200705074038 65 213 4.0 10.0 0.00 0.00 0.00 72 1022.5
20200705073836 64 226 4.0 10.0 0.00 0.00 0.00 72 1022.6
20200705073636 64 233 4.0 10.0 0.00 0.00 0.00 69 1022.5
20200705073438 64 243 4.0 8.0 0.00 0.00 0.00 70 1022.5
20200705073229 64 248 4.0 9.0 0.00 0.00 0.00 71 1022.5
20200705073021 64 257 3.0 9.0 0.00 0.00 0.00 72 1022.5
20200705072812 64 227 3.0 9.0 0.00 0.00 0.00 69 1022.4
20200705072604 64 238 2.0 9.0 0.00 0.00 0.00 71 1022.4
20200705072402 64 261 2.0 9.0 0.00 0.00 0.00 70 1022.4
20200705072151 64 233 2.0 9.0 0.00 0.00 0.00 72 1022.4
20200705071941 64 271 2.0 9.0 0.00 0.00 0.00 71 1022.4
20200705071737 64 244 2.0 9.0 0.00 0.00 0.00 72 1022.4
20200705071537 64 271 3.0 9.0 0.00 0.00 0.00 72 1022.5
20200705071331 64 243 3.0 7.0 0.00 0.00 0.00 72 1022.4
20200705071128 64 248 3.0 7.0 0.00 0.00 0.00 70 1022.4
20200705070929 64 243 2.0 7.0 0.00 0.00 0.00 71 1022.4
20200705070721 64 262 2.0 6.0 0.00 0.00 0.00 71 1022.4
20200705070517 64 255 2.0 6.0 0.00 0.00 0.00 70 1022.4
20200705070308 64 238 2.0 6.0 0.00 0.00 0.00 71 1022.4
20200705070107 64 257 2.0 6.0 0.00 0.00 0.00 73 1022.4
20200705065902 64 236 3.0 7.0 0.00 0.00 0.00 72 1022.3
20200705065658 64 269 3.0 7.0 0.00 0.00 0.00 73 1022.3
20200705065455 64 245 3.0 7.0 0.00 0.00 0.00 71 1022.3
20200705065243 64 258 2.0 7.0 0.00 0.00 0.00 73 1022.4
20200705065035 64 233 2.0 7.0 0.00 0.00 0.00 72 1022.3
20200705064831 64 218 2.0 7.0 0.00 0.00 0.00 73 1022.3
20200705064631 63 235 2.0 7.0 0.00 0.00 0.00 73 1022.3
20200705064423 63 207 2.0 7.0 0.00 0.00 0.00 72 1022.3
20200705064219 63 240 2.0 7.0 0.00 0.00 0.00 73 1022.2
20200705064021 63 243 3.0 7.0 0.00 0.00 0.00 74 1022.3
20200705063811 63 224 3.0 7.0 0.00 0.00 0.00 74 1022.2
20200705063605 63 253 2.0 7.0 0.00 0.00 0.00 73 1022.3
20200705063408 63 235 2.0 7.0 0.00 0.00 0.00 75 1022.3
20200705063207 63 243 2.0 7.0 0.00 0.00 0.00 73 1022.4
20200705063003 63 233 1.0 6.0 0.00 0.00 0.00 74 1022.3
20200705062801 64 231 1.0 6.0 0.00 0.00 0.00 74 1022.4
20200705062558 63 279 2.0 6.0 0.00 0.00 0.00 75 1022.3
20200705062352 63 211 2.0 6.0 0.00 0.00 0.00 75 1022.4
20200705062145 63 248 2.0 6.0 0.00 0.00 0.00 74 1022.3
20200705061940 63 225 2.0 6.0 0.00 0.00 0.00 73 1022.4
20200705061742 63 216 2.0 6.0 0.00 0.00 0.00 74 1022.3
20200705061544 63 226 1.0 6.0 0.00 0.00 0.00 74 1022.4
20200705061332 63 233 1.0 6.0 0.00 0.00 0.00 72 1022.4
20200705061125 63 260 1.0 5.0 0.00 0.00 0.00 75 1022.2
20200705060917 63 255 1.0 5.0 0.00 0.00 0.00 73 1022.3
20200705060709 63 254 1.0 5.0 0.00 0.00 0.00 75 1022.3
20200705060506 63 224 1.0 5.0 0.00 0.00 0.00 75 1022.3
20200705060304 63 252 1.0 5.0 0.00 0.00 0.00 74 1022.4
20200705060059 63 238 1.0 7.0 0.00 0.00 0.00 74 1022.4
20200705055857 63 256 2.0 7.0 0.00 0.00 0.00 75 1022.4
20200705055649 62 245 2.0 7.0 0.00 0.00 0.00 73 1022.3
20200705055447 62 256 2.0 7.0 0.00 0.00 0.00 75 1022.3
20200705055240 62 259 2.0 7.0 0.00 0.00 0.00 76 1022.3
20200705055042 62 252 3.0 7.0 0.00 0.00 0.00 74 1022.3
20200705054838 62 228 3.0 7.0 0.00 0.00 0.00 74 1022.3
20200705054634 62 239 2.0 7.0 0.00 0.00 0.00 75 1022.3
20200705054429 62 257 3.0 7.0 0.00 0.00 0.00 74 1022.3
20200705054227 62 252 2.0 6.0 0.00 0.00 0.00 73 1022.3
20200705054027 62 229 2.0 6.0 0.00 0.00 0.00 73 1022.3
20200705053825 62 231 1.0 6.0 0.00 0.00 0.00 74 1022.2
20200705053618 62 233 1.0 6.0 0.00 0.00 0.00 73 1022.3
20200705053408 62 225 1.0 4.0 0.00 0.00 0.00 74 1022.3
20200705053203 62 218 1.0 3.0 0.00 0.00 0.00 74 1022.3
20200705052958 62 308 1.0 3.0 0.00 0.00 0.00 75 1022.3
20200705052750 62 235 1.0 3.0 0.00 0.00 0.00 75 1022.3
20200705052541 62 257 1.0 3.0 0.00 0.00 0.00 76 1022.3
20200705052333 62 250 1.0 3.0 0.00 0.00 0.00 76 1022.2
20200705052133 62 233 1.0 3.0 0.00 0.00 0.00 76 1022.2
20200705051932 61 228 1.0 3.0 0.00 0.00 0.00 75 1022.4
20200705051728 62 251 1.0 5.0 0.00 0.00 0.00 75 1022.4
20200705051527 61 245 0.0 5.0 0.00 0.00 0.00 76 1022.3
20200705051319 61 238 0.0 5.0 0.00 0.00 0.00 76 1022.3
20200705051110 61 244 0.0 5.0 0.00 0.00 0.00 76 1022.3
20200705050900 61 223 0.0 5.0 0.00 0.00 0.00 76 1022.3
20200705050653 61 250 0.0 5.0 0.00 0.00 0.00 76 1022.2
20200705050449 61 238 1.0 5.0 0.00 0.00 0.00 75 1022.2
20200705050250 61 235 1.0 5.0 0.00 0.00 0.00 75 1022.3
20200705050047 61 244 1.0 5.0 0.00 0.00 0.00 74 1022.2
20200705045843 61 244 1.0 5.0 0.00 0.00 0.00 73 1022.3
20200705045634 62 290 1.0 4.0 0.00 0.00 0.00 73 1022.3
20200705045426 61 250 1.0 4.0 0.00 0.00 0.00 73 1022.2
20200705045226 61 253 1.0 4.0 0.00 0.00 0.00 72 1022.3
20200705045024 61 235 1.0 4.0 0.00 0.00 0.00 72 1022.2
20200705044824 61 237 1.0 4.0 0.00 0.00 0.00 72 1022.2
20200705044623 61 266 1.0 4.0 0.00 0.00 0.00 72 1022.2
20200705044423 61 255 1.0 6.0 0.00 0.00 0.00 71 1022.2
20200705044222 61 238 1.0 6.0 0.00 0.00 0.00 71 1022.2
20200705044020 62 274 1.0 6.0 0.00 0.00 0.00 71 1022.1
20200705043805 61 252 1.0 6.0 0.00 0.00 0.00 71 1022.1
20200705043606 61 212 1.0 6.0 0.00 0.00 0.00 71 1022.2
20200705043357 61 257 1.0 7.0 0.00 0.00 0.00 71 1022.1
20200705043150 61 259 1.0 7.0 0.00 0.00 0.00 71 1022.2
20200705042940 61 271 1.0 7.0 0.00 0.00 0.00 71 1022.2
20200705042741 61 203 0.0 7.0 0.00 0.00 0.00 72 1022.2
20200705042534 61 254 0.0 7.0 0.00 0.00 0.00 72 1022.1
20200705042334 61 234 0.0 7.0 0.00 0.00 0.00 73 1022.2
20200705042133 61 252 0.0 7.0 0.00 0.00 0.00 73 1022.2
20200705041931 60 170 1.0 7.0 0.00 0.00 0.00 73 1022.2
20200705041723 60 248 1.0 7.0 0.00 0.00 0.00 74 1022.2
20200705041518 60 118 1.0 7.0 0.00 0.00 0.00 73 1022.2
20200705041319 60 264 1.0 4.0 0.00 0.00 0.00 74 1022.2
20200705041119 60 238 1.0 4.0 0.00 0.00 0.00 75 1022.2
20200705040919 59 229 1.0 4.0 0.00 0.00 0.00 75 1022.3
20200705040710 59 234 1.0 4.0 0.00 0.00 0.00 75 1022.3
20200705040512 59 226 0.0 4.0 0.00 0.00 0.00 75 1022.2
20200705040301 59 198 0.0 4.0 0.00 0.00 0.00 75 1022.3
20200705040102 59 221 0.0 4.0 0.00 0.00 0.00 74 1022.3
20200705035851 59 103 0.0 4.0 0.00 0.00 0.00 74 1022.3
20200705035653 60 231 0.0 4.0 0.00 0.00 0.00 74 1022.3
20200705035446 59 215 0.0 4.0 0.00 0.00 0.00 74 1022.3
20200705035241 59 136 0.0 4.0 0.00 0.00 0.00 74 1022.3
20200705035031 59 207 0.0 4.0 0.00 0.00 0.00 74 1022.3
20200705034828 59 116 0.0 4.0 0.00 0.00 0.00 74 1022.2
20200705034613 59 209 0.0 4.0 0.00 0.00 0.00 75 1022.3
20200705034412 60 238 0.0 4.0 0.00 0.00 0.00 75 1022.2
20200705034209 59 220 0.0 4.0 0.00 0.00 0.00 75 1022.3
20200705034003 59 189 0.0 3.0 0.00 0.00 0.00 75 1022.3
20200705033754 59 41 0.0 2.0 0.00 0.00 0.00 75 1022.3
20200705033549 60 212 0.0 2.0 0.00 0.00 0.00 75 1022.2
20200705033344 59 218 0.0 2.0 0.00 0.00 0.00 74 1022.3
20200705033145 59 237 0.0 2.0 0.00 0.00 0.00 74 1022.3
20200705032937 59 284 0.0 2.0 0.00 0.00 0.00 73 1022.2
20200705032736 60 91 0.0 1.0 0.00 0.00 0.00 71 1022.2
20200705032534 60 96 0.0 1.0 0.00 0.00 0.00 70 1022.2
20200705032327 60 256 0.0 1.0 0.00 0.00 0.00 69 1022.4
20200705032120 60 238 0.0 1.0 0.00 0.00 0.00 69 1022.3
20200705031909 60 177 0.0 1.0 0.00 0.00 0.00 69 1022.2
20200705031703 59 258 0.0 1.0 0.00 0.00 0.00 69 1022.3
20200705031453 59 226 0.0 1.0 0.00 0.00 0.00 70 1022.3
20200705031253 59 189 0.0 1.0 0.00 0.00 0.00 70 1022.3
20200705031042 59 245 0.0 1.0 0.00 0.00 0.00 70 1022.4
20200705030832 59 239 0.0 0.0 0.00 0.00 0.00 70 1022.4
20200705030628 59 229 0.0 0.0 0.00 0.00 0.00 70 1022.4
20200705030421 59 240 0.0 1.0 0.00 0.00 0.00 70 1022.3
20200705030213 59 243 0.0 1.0 0.00 0.00 0.00 70 1022.4
20200705030007 59 241 0.0 1.0 0.00 0.00 0.00 70 1022.2
20200705025807 59 82 0.0 0.0 0.00 0.00 0.00 70 1022.3
20200705025601 59 243 0.0 2.0 0.00 0.00 0.00 69 1022.2
20200705025359 59 248 0.0 2.0 0.00 0.00 0.00 69 1022.3
20200705025152 59 211 0.0 2.0 0.00 0.00 0.00 69 1022.2
20200705024949 59 248 0.0 2.0 0.00 0.00 0.00 69 1022.2
20200705024741 59 224 0.0 2.0 0.00 0.00 0.00 70 1022.2
20200705024541 59 238 0.0 2.0 0.00 0.00 0.00 69 1022.2
20200705024334 59 270 0.0 1.0 0.00 0.00 0.00 70 1022.4
20200705024127 59 224 0.0 1.0 0.00 0.00 0.00 70 1022.4
20200705023928 59 253 0.0 1.0 0.00 0.00 0.00 70 1022.3
20200705023725 59 315 0.0 0.0 0.00 0.00 0.00 69 1022.4
20200705023526 59 22 0.0 0.0 0.00 0.00 0.00 69 1022.4
20200705023323 59 48 0.0 0.0 0.00 0.00 0.00 69 1022.4
20200705023120 59 75 0.0 1.0 0.00 0.00 0.00 69 1022.5
20200705022918 59 236 0.0 1.0 0.00 0.00 0.00 69 1022.4
20200705022710 59 236 0.0 1.0 0.00 0.00 0.00 69 1022.4
20200705022505 59 207 0.0 0.0 0.00 0.00 0.00 69 1022.3
20200705022304 59 227 0.0 1.0 0.00 0.00 0.00 69 1022.4
20200705022100 59 207 0.0 0.0 0.00 0.00 0.00 69 1022.4
20200705021854 59 267 0.0 1.0 0.00 0.00 0.00 69 1022.4
20200705021651 59 217 0.0 1.0 0.00 0.00 0.00 69 1022.4
20200705021447 59 290 0.0 1.0 0.00 0.00 0.00 70 1022.5
20200705021242 59 13 0.0 0.0 0.00 0.00 0.00 70 1022.4
20200705021041 58 86 0.0 0.0 0.00 0.00 0.00 70 1022.4
20200705020842 58 86 0.0 0.0 0.00 0.00 0.00 70 1022.4
20200705020635 58 239 0.0 0.0 0.00 0.00 0.00 70 1022.5
20200705020436 58 97 0.0 0.0 0.00 0.00 0.00 70 1022.4
20200705020228 58 113 0.0 2.0 0.00 0.00 0.00 70 1022.5
20200705020024 58 113 0.0 2.0 0.00 0.00 0.00 70 1022.6
20200705015818 58 114 0.0 2.0 0.00 0.00 0.00 70 1022.5
20200705015618 58 107 0.0 2.0 0.00 0.00 0.00 71 1022.5
20200705015417 58 76 0.0 2.0 0.00 0.00 0.00 71 1022.5
20200705015207 58 56 0.0 0.0 0.00 0.00 0.00 71 1022.5
20200705015003 58 109 0.0 0.0 0.00 0.00 0.00 71 1022.5
20200705014759 58 232 0.0 0.0 0.00 0.00 0.00 71 1022.5
20200705014551 58 223 0.0 0.0 0.00 0.00 0.00 71 1022.6
20200705014352 58 155 0.0 0.0 0.00 0.00 0.00 71 1022.6
20200705014142 58 126 0.0 0.0 0.00 0.00 0.00 72 1022.6
20200705013935 58 131 0.0 0.0 0.00 0.00 0.00 72 1022.6
20200705013733 58 133 0.0 0.0 0.00 0.00 0.00 72 1022.6
20200705013529 58 136 0.0 0.0 0.00 0.00 0.00 72 1022.5
20200705013326 58 205 0.0 0.0 0.00 0.00 0.00 72 1022.6
20200705013126 58 205 0.0 0.0 0.00 0.00 0.00 72 1022.7
20200705012916 58 205 0.0 0.0 0.00 0.00 0.00 72 1022.7
20200705012708 58 205 0.0 0.0 0.00 0.00 0.00 72 1022.8
20200705012459 58 205 0.0 0.0 0.00 0.00 0.00 72 1022.8
20200705012253 58 176 0.0 0.0 0.00 0.00 0.00 72 1022.8
20200705012047 58 176 0.0 0.0 0.00 0.00 0.00 72 1022.8
20200705011845 58 176 0.0 0.0 0.00 0.00 0.00 72 1022.8
20200705011639 58 167 0.0 0.0 0.00 0.00 0.00 71 1022.8
20200705011429 58 167 0.0 0.0 0.00 0.00 0.00 71 1022.9
20200705011229 58 253 0.0 0.0 0.00 0.00 0.00 71 1023.0
20200705011029 59 253 0.0 0.0 0.00 0.00 0.00 71 1022.9
20200705010820 59 255 0.0 0.0 0.00 0.00 0.00 70 1023.0
20200705010614 58 254 0.0 0.0 0.00 0.00 0.00 70 1022.9
20200705010413 58 249 0.0 1.0 0.00 0.00 0.00 70 1023.0
20200705010205 58 235 0.0 0.0 0.00 0.00 0.00 70 1022.9
20200705005957 58 160 0.0 0.0 0.00 0.00 0.00 70 1023.0
20200705005748 59 160 0.0 0.0 0.00 0.00 0.00 70 1023.0
20200705005540 59 161 0.0 0.0 0.00 0.00 0.00 70 1023.0
20200705005341 59 161 0.0 0.0 0.00 0.00 0.00 70 1023.0
20200705005132 59 159 0.0 0.0 0.00 0.00 0.00 70 1023.2
20200705004928 59 159 0.0 0.0 0.00 0.00 0.00 69 1023.0
20200705004723 59 274 0.0 3.0 0.00 0.00 0.00 68 1023.0
20200705004520 59 273 0.0 3.0 0.00 0.00 0.00 68 1023.1
20200705004311 59 264 0.0 3.0 0.00 0.00 0.00 68 1023.0
20200705004103 59 265 0.0 3.0 0.00 0.00 0.00 68 1023.0
20200705003855 59 241 0.0 3.0 0.00 0.00 0.00 68 1023.0
20200705003656 59 219 0.0 3.0 0.00 0.00 0.00 68 1023.0
20200705003456 59 240 0.0 2.0 0.00 0.00 0.00 68 1023.0
20200705003253 59 247 0.0 2.0 0.00 0.00 0.00 68 1023.0
20200705003051 59 236 0.0 2.0 0.00 0.00 0.00 68 1023.0
20200705002851 59 260 0.0 2.0 0.00 0.00 0.00 68 1023.2
20200705002652 59 249 0.0 2.0 0.00 0.00 0.00 69 1023.1
20200705002445 59 213 0.0 2.0 0.00 0.00 0.00 68 1023.1
20200705002244 59 243 0.0 2.0 0.00 0.00 0.00 68 1023.1
20200705002036 59 285 0.0 2.0 0.00 0.00 0.00 69 1023.0
20200705001837 59 245 1.0 2.0 0.00 0.00 0.00 69 1023.2
20200705001631 59 260 1.0 2.0 0.00 0.00 0.00 68 1023.1
20200705001422 59 221 1.0 2.0 0.00 0.00 0.00 68 1023.2
20200705001218 59 249 1.0 2.0 0.00 0.00 0.00 69 1023.1
20200705001019 59 248 0.0 2.0 0.00 0.00 0.00 69 1023.2
20200705000817 59 255 0.0 2.0 0.00 0.00 0.00 70 1023.1
20200705000612 59 247 0.0 2.0 0.00 0.00 0.00 70 1023.1
20200705000403 58 291 0.0 2.0 0.00 0.00 0.00 70 1023.2
20200705000155 58 225 0.0 1.0 0.00 0.00 0.00 71 1023.1
20200704235953 58 246 0.0 1.0 0.00 0.00 0.00 71 1023.0
20200704235758 58 272 0.0 1.0 0.00 0.00 0.00 71 1023.1
20200704235602 58 281 0.0 1.0 0.00 0.00 0.00 71 1023.0
20200704235352 58 250 0.0 1.0 0.00 0.00 0.00 71 1023.0
20200704235153 58 239 0.0 3.0 0.00 0.00 0.00 71 1023.0
20200704234939 58 255 1.0 3.0 0.00 0.00 0.00 72 1023.0
20200704234721 58 226 1.0 3.0 0.00 0.00 0.00 71 1023.0
20200704234511 58 250 1.0 3.0 0.00 0.00 0.00 71 1023.1
20200704234306 58 240 1.0 3.0 0.00 0.00 0.00 72 1023.0
20200704234105 58 255 1.0 3.0 0.00 0.00 0.00 72 1023.0
20200704233855 58 243 1.0 3.0 0.00 0.00 0.00 72 1023.0
20200704233657 58 254 1.0 3.0 0.00 0.00 0.00 72 1023.0
20200704233457 58 243 1.0 3.0 0.00 0.00 0.00 72 1023.0
20200704233255 59 219 1.0 3.0 0.00 0.00 0.00 71 1023.0
20200704233055 59 248 1.0 3.0 0.00 0.00 0.00 72 1023.0
20200704232843 59 231 1.0 3.0 0.00 0.00 0.00 71 1023.0
20200704232646 59 231 1.0 3.0 0.00 0.00 0.00 72 1022.9
20200704232435 59 229 1.0 3.0 0.00 0.00 0.00 71 1022.9
20200704232233 59 259 1.0 3.0 0.00 0.00 0.00 71 1022.9
20200704232029 59 259 1.0 3.0 0.00 0.00 0.00 71 1022.9
20200704231821 59 231 0.0 3.0 0.00 0.00 0.00 71 1022.9
20200704231616 59 215 0.0 2.0 0.00 0.00 0.00 71 1022.9
20200704231413 59 238 0.0 2.0 0.00 0.00 0.00 71 1022.9
20200704231212 59 249 0.0 2.0 0.00 0.00 0.00 71 1022.9
20200704231004 59 257 0.0 2.0 0.00 0.00 0.00 71 1022.9
20200704230756 59 228 0.0 2.0 0.00 0.00 0.00 71 1023.0
20200704230555 59 270 0.0 1.0 0.00 0.00 0.00 71 1022.9
20200704230349 59 220 0.0 1.0 0.00 0.00 0.00 71 1023.0
20200704230149 59 228 0.0 0.0 0.00 0.00 0.00 71 1023.0
20200704225947 59 288 0.0 1.0 0.00 0.00 0.00 71 1023.0
20200704225745 59 280 0.0 2.0 0.00 0.00 0.00 70 1023.0
20200704225539 59 245 0.0 2.0 0.00 0.00 0.00 70 1023.0
20200704225338 59 257 0.0 2.0 0.00 0.00 0.00 70 1023.0
20200704225132 59 284 0.0 2.0 0.00 0.00 0.00 70 1023.0
20200704224926 60 259 0.0 2.0 0.00 0.00 0.00 69 1023.0
20200704224723 60 250 0.0 2.0 0.00 0.00 0.00 69 1023.0
20200704224520 60 242 0.0 2.0 0.00 0.00 0.00 69 1023.0
20200704224314 60 263 0.0 2.0 0.00 0.00 0.00 69 1022.9
20200704224103 60 243 0.0 2.0 0.00 0.00 0.00 69 1023.0
20200704223904 60 245 0.0 2.0 0.00 0.00 0.00 69 1023.0